,,,PA_Meas_PMT16A,,PR_Meas_QMR101_102,,RH_Meas_QMH101,,SR_Meas_QMS101,,TA_Meas_QMH101,,GenWind,,GenWind,
date,time,status,PA,status,PR,status,RH,status,SR,status,TA,status,DirAvg,status,SpdAvg,
2011-12-10, 00:00:04,VALID,999.431,VALID,0,VALID,94.592,VALID,0,VALID,23.2134,VALID,26,VALID,1.06914,
2011-12-10, 00:01:04,VALID,999.412,VALID,0,VALID,94.5844,VALID,0,VALID,23.2134,VALID,34,VALID,0.416016,
2011-12-10, 00:02:04,VALID,999.412,VALID,0,VALID,94.5768,VALID,0,VALID,23.2134,VALID,32,VALID,0.220703,
2011-12-10, 00:03:04,VALID,999.418,VALID,0,VALID,94.5768,VALID,0,VALID,23.2134,VALID,32,VALID,0.341406,
2011-12-10, 00:04:04,VALID,999.394,VALID,0,VALID,94.592,VALID,0,VALID,23.2134,VALID,32,VALID,0.375781,
2011-12-10, 00:05:04,VALID,999.367,VALID,0,VALID,94.6073,VALID,0,VALID,23.1939,VALID,32,VALID,0.296094,
2011-12-10, 00:06:04,VALID,999.373,VALID,0,VALID,94.6073,VALID,0,VALID,23.1744,VALID,32,VALID,0,
2011-12-10, 00:07:04,VALID,999.363,VALID,0,VALID,94.5997,VALID,0,VALID,23.1939,VALID,32,VALID,0,
2011-12-10, 00:08:04,VALID,999.367,VALID,0,VALID,94.5997,VALID,0,VALID,23.1726,VALID,32,VALID,0,
2011-12-10, 00:09:04,VALID,999.341,VALID,0,VALID,94.5997,VALID,0,VALID,23.1939,VALID,32,VALID,0.366406,
2011-12-10, 00:10:04,VALID,999.352,VALID,0,VALID,94.6073,VALID,0,VALID,23.1939,VALID,32,VALID,0,
2011-12-10, 00:11:04,VALID,999.353,VALID,0,VALID,94.6073,VALID,0,VALID,23.1744,VALID,32,VALID,0,
2011-12-10, 00:12:04,VALID,999.355,VALID,0,VALID,94.592,VALID,0,VALID,23.1549,VALID,32,VALID,0,
2011-12-10, 00:13:04,VALID,999.308,VALID,0,VALID,94.6073,VALID,0,VALID,23.1549,VALID,32,VALID,0,
2011-12-10, 00:14:04,VALID,999.343,VALID,0,VALID,94.5844,VALID,0,VALID,23.1354,VALID,32,VALID,0,
2011-12-10, 00:15:04,VALID,999.316,VALID,0,VALID,94.6226,VALID,0,VALID,23.1549,VALID,32,VALID,0,
2011-12-10, 00:16:04,VALID,999.326,VALID,0,VALID,94.6073,VALID,0,VALID,23.1744,VALID,32,VALID,0,
2011-12-10, 00:17:04,VALID,999.273,VALID,0,VALID,94.6226,VALID,0,VALID,23.1744,VALID,32,VALID,0,
2011-12-10, 00:18:04,VALID,999.252,VALID,0,VALID,94.6073,VALID,0,VALID,23.1744,VALID,32,VALID,0,
2011-12-10, 00:19:04,VALID,999.231,VALID,0,VALID,94.6073,VALID,0,VALID,23.1744,VALID,32,VALID,0,
2011-12-10, 00:20:04,VALID,999.242,VALID,0,VALID,94.6226,VALID,0,VALID,23.1744,VALID,32,VALID,0,
2011-12-10, 00:21:04,VALID,999.208,VALID,0,VALID,94.6149,VALID,0,VALID,23.1744,VALID,32,VALID,0,
2011-12-10, 00:22:04,VALID,999.183,VALID,0,VALID,94.6454,VALID,0,VALID,23.1744,VALID,32,VALID,0,
2011-12-10, 00:23:04,VALID,999.158,VALID,0,VALID,94.6302,VALID,0,VALID,23.1939,VALID,32,VALID,0,
2011-12-10, 00:24:04,VALID,999.173,VALID,0,VALID,94.6073,VALID,0,VALID,23.1531,VALID,32,VALID,0,
2011-12-10, 00:25:04,VALID,999.166,VALID,0,VALID,94.6226,VALID,0,VALID,23.1744,VALID,32,VALID,0,
2011-12-10, 00:26:04,VALID,999.147,VALID,0,VALID,94.6302,VALID,0,VALID,23.1549,VALID,32,VALID,0,
2011-12-10, 00:27:04,VALID,999.152,VALID,0,VALID,94.6378,VALID,0,VALID,23.1354,VALID,32,VALID,0,
2011-12-10, 00:28:04,VALID,999.103,VALID,0,VALID,94.6226,VALID,0,VALID,23.1141,VALID,32,VALID,0,
2011-12-10, 00:29:04,VALID,999.099,VALID,0,VALID,94.6302,VALID,0,VALID,23.1549,VALID,49,VALID,0,
2011-12-10, 00:30:04,VALID,999.105,VALID,0,VALID,94.592,VALID,0,VALID,23.2134,VALID,136,VALID,0,
2011-12-10, 00:31:04,VALID,999.084,VALID,0,VALID,94.592,VALID,0,VALID,23.2507,VALID,136,VALID,0.221094,
2011-12-10, 00:32:04,VALID,999.078,VALID,0,VALID,94.5691,VALID,0,VALID,23.2897,VALID,137,VALID,0.729297,
2011-12-10, 00:33:04,VALID,999.048,VALID,0,VALID,94.5691,VALID,0,VALID,23.3305,VALID,141,VALID,0.7125,
2011-12-10, 00:34:05,VALID,999.041,VALID,0,VALID,94.5615,VALID,0,VALID,23.3695,VALID,141,VALID,0.896484,
2011-12-10, 00:35:05,VALID,999.027,VALID,0,VALID,94.5844,VALID,0,VALID,23.3482,VALID,141,VALID,0.600391,
2011-12-10, 00:36:05,VALID,998.998,VALID,0,VALID,94.5844,VALID,0,VALID,23.389,VALID,141,VALID,0.497656,
2011-12-10, 00:37:05,VALID,999.023,VALID,0,VALID,94.5844,VALID,0,VALID,23.3695,VALID,141,VALID,0.502344,
2011-12-10, 00:38:05,VALID,999.027,VALID,0,VALID,94.5844,VALID,0,VALID,23.3695,VALID,141,VALID,0.599219,
2011-12-10, 00:39:05,VALID,999.034,VALID,0,VALID,94.5844,VALID,0,VALID,23.3677,VALID,141,VALID,0.552734,
2011-12-10, 00:40:05,VALID,999.01,VALID,0,VALID,94.6073,VALID,0,VALID,23.3677,VALID,141,VALID,0.542969,
2011-12-10, 00:41:05,VALID,999.012,VALID,0,VALID,94.5844,VALID,0,VALID,23.3482,VALID,141,VALID,0.489453,
2011-12-10, 00:42:05,VALID,999,VALID,0,VALID,94.6226,VALID,0,VALID,23.389,VALID,141,VALID,0.360938,
2011-12-10, 00:43:05,VALID,998.981,VALID,0,VALID,94.6149,VALID,0,VALID,23.35,VALID,141,VALID,0.480859,
2011-12-10, 00:44:05,VALID,998.978,VALID,0,VALID,94.6149,VALID,0,VALID,23.35,VALID,141,VALID,0,
2011-12-10, 00:45:05,VALID,998.958,VALID,0,VALID,94.6073,VALID,0,VALID,23.3695,VALID,141,VALID,0,
2011-12-10, 00:46:05,VALID,998.966,VALID,0,VALID,94.6226,VALID,0,VALID,23.3695,VALID,141,VALID,0,
2011-12-10, 00:47:05,VALID,998.952,VALID,0,VALID,94.6302,VALID,0,VALID,23.3695,VALID,141,VALID,0,
2011-12-10, 00:48:05,VALID,998.961,VALID,0,VALID,94.6073,VALID,0,VALID,23.35,VALID,141,VALID,0,
2011-12-10, 00:49:05,VALID,998.953,VALID,0,VALID,94.6378,VALID,0,VALID,23.3287,VALID,141,VALID,0,
2011-12-10, 00:50:05,VALID,998.96,VALID,0,VALID,94.6226,VALID,0,VALID,23.35,VALID,141,VALID,0,
2011-12-10, 00:51:05,VALID,998.93,VALID,0,VALID,94.5997,VALID,0,VALID,23.3287,VALID,141,VALID,0,
2011-12-10, 00:52:05,VALID,998.937,VALID,0,VALID,94.6454,VALID,0,VALID,23.35,VALID,141,VALID,0,
2011-12-10, 00:53:05,VALID,998.924,VALID,0,VALID,94.6226,VALID,0,VALID,23.3482,VALID,141,VALID,0,
2011-12-10, 00:54:05,VALID,998.903,VALID,0,VALID,94.6073,VALID,0,VALID,23.35,VALID,112,VALID,0.552344,
2011-12-10, 00:55:05,VALID,998.898,VALID,0,VALID,94.6149,VALID,0,VALID,23.3092,VALID,107,VALID,0.487109,
2011-12-10, 00:56:05,VALID,998.881,VALID,0,VALID,94.6378,VALID,0,VALID,23.3092,VALID,105,VALID,0,
2011-12-10, 00:57:05,VALID,998.886,VALID,0,VALID,94.6302,VALID,0,VALID,23.3305,VALID,105,VALID,0,
2011-12-10, 00:58:05,VALID,998.871,VALID,0,VALID,94.6226,VALID,0,VALID,23.3092,VALID,105,VALID,0,
2011-12-10, 00:59:05,VALID,998.854,VALID,0,VALID,94.6302,VALID,0,VALID,23.3092,VALID,105,VALID,0,
2011-12-10, 01:00:05,VALID,998.877,VALID,0,VALID,94.6149,VALID,0,VALID,23.3305,VALID,105,VALID,0,
2011-12-10, 01:01:05,VALID,998.869,VALID,0,VALID,94.6226,VALID,0,VALID,23.3305,VALID,92,VALID,0.636719,
2011-12-10, 01:02:05,VALID,998.857,VALID,0,VALID,94.6073,VALID,0,VALID,23.3287,VALID,56,VALID,0.650781,
2011-12-10, 01:03:05,VALID,998.891,VALID,0,VALID,94.6226,VALID,0,VALID,23.3092,VALID,56,VALID,0.558203,
2011-12-10, 01:04:05,VALID,998.875,VALID,0,VALID,94.6378,VALID,0,VALID,23.3305,VALID,56,VALID,0.551953,
2011-12-10, 01:05:05,VALID,998.916,VALID,0,VALID,94.6302,VALID,0,VALID,23.311,VALID,56,VALID,0.414063,
2011-12-10, 01:06:05,VALID,998.939,VALID,0,VALID,94.6302,VALID,0,VALID,23.311,VALID,29,VALID,0.641016,
2011-12-10, 01:07:05,VALID,998.956,VALID,0,VALID,94.6531,VALID,0,VALID,23.311,VALID,29,VALID,0.385156,
2011-12-10, 01:08:05,VALID,998.944,VALID,0,VALID,94.6302,VALID,0,VALID,23.2915,VALID,29,VALID,0.250391,
2011-12-10, 01:09:05,VALID,998.907,VALID,0,VALID,94.6378,VALID,0,VALID,23.2915,VALID,29,VALID,0.392969,
2011-12-10, 01:10:05,VALID,998.943,VALID,0,VALID,94.6531,VALID,0,VALID,23.2702,VALID,30,VALID,0.5,
2011-12-10, 01:11:05,VALID,998.918,VALID,0,VALID,94.6531,VALID,0,VALID,23.2702,VALID,31,VALID,0.421875,
2011-12-10, 01:12:05,VALID,998.913,VALID,0,VALID,94.6454,VALID,0,VALID,23.311,VALID,31,VALID,0,
2011-12-10, 01:13:05,VALID,998.903,VALID,0,VALID,94.6454,VALID,0,VALID,23.2702,VALID,31,VALID,0,
2011-12-10, 01:14:05,VALID,998.924,VALID,0,VALID,94.6607,VALID,0,VALID,23.3127,VALID,31,VALID,0,
2011-12-10, 01:15:05,VALID,998.932,VALID,0,VALID,94.6378,VALID,0,VALID,23.2915,VALID,6,VALID,0,
2011-12-10, 01:16:05,VALID,998.905,VALID,0,VALID,94.6378,VALID,0,VALID,23.311,VALID,275,VALID,0.838672,
2011-12-10, 01:17:05,VALID,998.925,VALID,0,VALID,94.6378,VALID,0,VALID,23.311,VALID,275,VALID,0.796094,
2011-12-10, 01:18:05,VALID,998.901,VALID,0,VALID,94.6302,VALID,0,VALID,23.2897,VALID,275,VALID,0.653906,
2011-12-10, 01:19:05,VALID,998.895,VALID,0,VALID,94.6302,VALID,0,VALID,23.3305,VALID,273,VALID,0.365625,
2011-12-10, 01:20:05,VALID,998.89,VALID,0,VALID,94.6226,VALID,0,VALID,23.2897,VALID,239,VALID,0.389453,
2011-12-10, 01:21:05,VALID,998.884,VALID,0,VALID,94.6149,VALID,0,VALID,23.311,VALID,165,VALID,0.678125,
2011-12-10, 01:22:05,VALID,998.875,VALID,0,VALID,94.6454,VALID,0,VALID,23.2897,VALID,153,VALID,0.38125,
2011-12-10, 01:23:05,VALID,998.869,VALID,0,VALID,94.6454,VALID,0,VALID,23.3305,VALID,153,VALID,0.135937,
2011-12-10, 01:24:05,VALID,998.865,VALID,0,VALID,94.6607,VALID,0,VALID,23.311,VALID,60,VALID,0.606641,
2011-12-10, 01:25:05,VALID,998.891,VALID,0,VALID,94.6454,VALID,0,VALID,23.311,VALID,59,VALID,0.685156,
2011-12-10, 01:26:05,VALID,998.871,VALID,0,VALID,94.6531,VALID,0,VALID,23.3092,VALID,25,VALID,0.687891,
2011-12-10, 01:27:05,VALID,998.916,VALID,0,VALID,94.6683,VALID,0,VALID,23.3287,VALID,7,VALID,0.815625,
2011-12-10, 01:28:05,VALID,998.91,VALID,0,VALID,94.6607,VALID,0,VALID,23.35,VALID,351,VALID,0.848828,
2011-12-10, 01:29:05,VALID,998.913,VALID,0,VALID,94.6683,VALID,0,VALID,23.35,VALID,351,VALID,0.392578,
2011-12-10, 01:30:05,VALID,998.884,VALID,0,VALID,94.6683,VALID,0,VALID,23.3305,VALID,351,VALID,0.397266,
2011-12-10, 01:31:05,VALID,998.909,VALID,0,VALID,94.6531,VALID,0,VALID,23.311,VALID,351,VALID,0.297656,
2011-12-10, 01:32:05,VALID,998.872,VALID,0,VALID,94.6607,VALID,0,VALID,23.311,VALID,351,VALID,0,
2011-12-10, 01:33:05,VALID,998.903,VALID,0,VALID,94.6531,VALID,0,VALID,23.2915,VALID,352,VALID,0.895703,
2011-12-10, 01:34:05,VALID,998.88,VALID,0,VALID,94.676,VALID,0,VALID,23.2915,VALID,16,VALID,0.999219,
2011-12-10, 01:35:05,VALID,998.889,VALID,0,VALID,94.6607,VALID,0,VALID,23.2915,VALID,23,VALID,0.88125,
2011-12-10, 01:36:05,VALID,998.887,VALID,0,VALID,94.6683,VALID,0,VALID,23.2915,VALID,31,VALID,0.544531,
2011-12-10, 01:37:05,VALID,998.873,VALID,0,VALID,94.6683,VALID,0,VALID,23.2524,VALID,25,VALID,0.798047,
2011-12-10, 01:38:05,VALID,998.887,VALID,0,VALID,94.6607,VALID,0,VALID,23.2312,VALID,19,VALID,0.866406,
2011-12-10, 01:39:05,VALID,998.889,VALID,0,VALID,94.6683,VALID,0,VALID,23.2117,VALID,33,VALID,1.18164,
2011-12-10, 01:40:05,VALID,998.849,VALID,0,VALID,94.6607,VALID,0,VALID,23.2329,VALID,33,VALID,1.15664,
2011-12-10, 01:41:05,VALID,998.878,VALID,0,VALID,94.6531,VALID,0,VALID,23.2329,VALID,40,VALID,0.950391,
2011-12-10, 01:42:05,VALID,998.862,VALID,0,VALID,94.6836,VALID,0,VALID,23.2507,VALID,40,VALID,0.576953,
2011-12-10, 01:43:05,VALID,998.831,VALID,0,VALID,94.676,VALID,0,VALID,23.2312,VALID,40,VALID,0.333594,
2011-12-10, 01:44:05,VALID,998.813,VALID,0,VALID,94.6607,VALID,0,VALID,23.2719,VALID,43,VALID,0.504687,
2011-12-10, 01:45:05,VALID,998.778,VALID,0,VALID,94.6683,VALID,0,VALID,23.2915,VALID,86,VALID,0.708984,
2011-12-10, 01:46:05,VALID,998.806,VALID,0,VALID,94.6607,VALID,0,VALID,23.2915,VALID,88,VALID,0.629687,
2011-12-10, 01:47:05,VALID,998.793,VALID,0,VALID,94.676,VALID,0,VALID,23.2897,VALID,88,VALID,0.328125,
2011-12-10, 01:48:05,VALID,998.817,VALID,0,VALID,94.676,VALID,0,VALID,23.311,VALID,107,VALID,0.472266,
2011-12-10, 01:49:05,VALID,998.815,VALID,0,VALID,94.6454,VALID,0,VALID,23.3305,VALID,194,VALID,0.500781,
2011-12-10, 01:50:05,VALID,998.828,VALID,0,VALID,94.6607,VALID,0,VALID,23.3092,VALID,194,VALID,0,
2011-12-10, 01:51:05,VALID,998.832,VALID,0,VALID,94.6454,VALID,0,VALID,23.3287,VALID,194,VALID,0.183203,
2011-12-10, 01:52:05,VALID,998.812,VALID,0,VALID,94.6378,VALID,0.104696,VALID,23.3482,VALID,194,VALID,0,
2011-12-10, 01:53:05,VALID,998.821,VALID,0,VALID,94.6607,VALID,0,VALID,23.3695,VALID,194,VALID,0,
2011-12-10, 01:54:05,VALID,998.831,VALID,0,VALID,94.6378,VALID,0,VALID,23.3482,VALID,194,VALID,0,
2011-12-10, 01:55:05,VALID,998.839,VALID,0,VALID,94.6454,VALID,0,VALID,23.35,VALID,189,VALID,0,
2011-12-10, 01:56:05,VALID,998.816,VALID,0,VALID,94.6607,VALID,0,VALID,23.35,VALID,189,VALID,0,
2011-12-10, 01:57:05,VALID,998.843,VALID,0,VALID,94.6454,VALID,0,VALID,23.3092,VALID,188,VALID,0,
2011-12-10, 01:58:05,VALID,998.843,VALID,0,VALID,94.6454,VALID,0,VALID,23.3092,VALID,188,VALID,0,
2011-12-10, 01:59:05,VALID,998.851,VALID,0,VALID,94.6454,VALID,0,VALID,23.3305,VALID,108,VALID,0,
2011-12-10, 02:00:05,VALID,998.839,VALID,0.5,VALID,94.6607,VALID,0,VALID,23.35,VALID,76,VALID,0,
2011-12-10, 02:01:05,VALID,998.815,VALID,0,VALID,94.6607,VALID,0,VALID,23.3305,VALID,76,VALID,0,
2011-12-10, 02:02:05,VALID,998.803,VALID,0,VALID,94.6378,VALID,0,VALID,23.3092,VALID,76,VALID,0,
2011-12-10, 02:03:05,VALID,998.767,VALID,0,VALID,94.6454,VALID,0,VALID,23.2897,VALID,76,VALID,0,
2011-12-10, 02:04:05,VALID,998.775,VALID,0,VALID,94.6607,VALID,0,VALID,23.311,VALID,76,VALID,0,
2011-12-10, 02:05:05,VALID,998.725,VALID,0,VALID,94.6531,VALID,0,VALID,23.2897,VALID,76,VALID,0,
2011-12-10, 02:06:05,VALID,998.734,VALID,0,VALID,94.6454,VALID,0,VALID,23.2915,VALID,76,VALID,0,
2011-12-10, 02:07:05,VALID,998.726,VALID,0,VALID,94.676,VALID,0,VALID,23.2702,VALID,76,VALID,0,
2011-12-10, 02:08:05,VALID,998.686,VALID,0,VALID,94.6531,VALID,0,VALID,23.2897,VALID,76,VALID,0,
2011-12-10, 02:09:05,VALID,998.67,VALID,0,VALID,94.6454,VALID,0.104696,VALID,23.2915,VALID,76,VALID,0,
2011-12-10, 02:10:05,VALID,998.656,VALID,0,VALID,94.6378,VALID,0,VALID,23.2915,VALID,76,VALID,0,
2011-12-10, 02:11:05,VALID,998.627,VALID,0,VALID,94.6378,VALID,0,VALID,23.311,VALID,76,VALID,0,
2011-12-10, 02:12:05,VALID,998.595,VALID,0,VALID,94.6302,VALID,0,VALID,23.2897,VALID,76,VALID,0,
2011-12-10, 02:13:05,VALID,998.609,VALID,0,VALID,94.6378,VALID,0,VALID,23.2897,VALID,76,VALID,0,
2011-12-10, 02:14:05,VALID,998.579,VALID,0,VALID,94.6454,VALID,0,VALID,23.2897,VALID,101,VALID,0,
2011-12-10, 02:15:05,VALID,998.552,VALID,0,VALID,94.6531,VALID,0,VALID,23.2702,VALID,138,VALID,0,
2011-12-10, 02:16:05,VALID,998.547,VALID,0,VALID,94.6454,VALID,0,VALID,23.311,VALID,129,VALID,0.758203,
2011-12-10, 02:17:05,VALID,998.518,VALID,0,VALID,94.6607,VALID,0,VALID,23.311,VALID,132,VALID,0.516016,
2011-12-10, 02:18:05,VALID,998.506,VALID,0,VALID,94.6454,VALID,0,VALID,23.2897,VALID,132,VALID,0.3125,
2011-12-10, 02:19:05,VALID,998.51,VALID,0,VALID,94.6378,VALID,0,VALID,23.3092,VALID,132,VALID,0.327734,
2011-12-10, 02:20:05,VALID,998.48,VALID,0,VALID,94.6607,VALID,0,VALID,23.3092,VALID,139,VALID,0.448438,
2011-12-10, 02:21:05,VALID,998.457,VALID,0,VALID,94.6454,VALID,0,VALID,23.3092,VALID,172,VALID,0.591797,
2011-12-10, 02:22:05,VALID,998.447,VALID,0,VALID,94.6683,VALID,0,VALID,23.3287,VALID,171,VALID,0.275,
2011-12-10, 02:23:05,VALID,998.436,VALID,0,VALID,94.6454,VALID,0,VALID,23.3287,VALID,171,VALID,0.272656,
2011-12-10, 02:24:05,VALID,998.415,VALID,0,VALID,94.6607,VALID,0,VALID,23.3287,VALID,171,VALID,0.160547,
2011-12-10, 02:25:05,VALID,998.423,VALID,0,VALID,94.6683,VALID,0,VALID,23.3092,VALID,171,VALID,0,
2011-12-10, 02:26:05,VALID,998.42,VALID,0,VALID,94.6683,VALID,0,VALID,23.3092,VALID,171,VALID,0,
2011-12-10, 02:27:05,VALID,998.399,VALID,0,VALID,94.6836,VALID,0.104696,VALID,23.311,VALID,171,VALID,0,
2011-12-10, 02:28:05,VALID,998.4,VALID,0,VALID,94.6912,VALID,0,VALID,23.2702,VALID,171,VALID,0,
2011-12-10, 02:29:05,VALID,998.407,VALID,0,VALID,94.6836,VALID,0,VALID,23.2312,VALID,135,VALID,0,
2011-12-10, 02:30:05,VALID,998.383,VALID,0,VALID,94.6912,VALID,0,VALID,23.2312,VALID,135,VALID,0.373047,
2011-12-10, 02:31:05,VALID,998.363,VALID,0,VALID,94.6988,VALID,0,VALID,23.1921,VALID,135,VALID,0.225,
2011-12-10, 02:32:05,VALID,998.413,VALID,0,VALID,94.6988,VALID,0,VALID,23.1921,VALID,135,VALID,0.159375,
2011-12-10, 02:33:05,VALID,998.388,VALID,0,VALID,94.7065,VALID,0,VALID,23.1726,VALID,135,VALID,0,
2011-12-10, 02:34:05,VALID,998.381,VALID,0,VALID,94.6912,VALID,0,VALID,23.1531,VALID,127,VALID,0,
2011-12-10, 02:35:05,VALID,998.378,VALID,0,VALID,94.7065,VALID,0,VALID,23.1531,VALID,73,VALID,0,
2011-12-10, 02:36:05,VALID,998.378,VALID,0,VALID,94.7065,VALID,0,VALID,23.1141,VALID,39,VALID,0,
2011-12-10, 02:37:05,VALID,998.348,VALID,0,VALID,94.7141,VALID,0,VALID,23.0751,VALID,33,VALID,0,
2011-12-10, 02:38:05,VALID,998.356,VALID,0,VALID,94.7141,VALID,0,VALID,23.0556,VALID,33,VALID,0,
2011-12-10, 02:39:05,VALID,998.318,VALID,0,VALID,94.7065,VALID,0,VALID,23.0573,VALID,33,VALID,0,
2011-12-10, 02:40:05,VALID,998.308,VALID,0,VALID,94.7294,VALID,0,VALID,23.0786,VALID,33,VALID,0,
2011-12-10, 02:41:05,VALID,998.303,VALID,0,VALID,94.7065,VALID,0,VALID,23.0378,VALID,33,VALID,0,
2011-12-10, 02:42:05,VALID,998.29,VALID,0,VALID,94.7065,VALID,0,VALID,23.0183,VALID,33,VALID,0,
2011-12-10, 02:43:05,VALID,998.258,VALID,0,VALID,94.6988,VALID,0,VALID,22.9988,VALID,33,VALID,0,
2011-12-10, 02:44:05,VALID,998.247,VALID,0,VALID,94.6988,VALID,0,VALID,22.9988,VALID,33,VALID,0,
2011-12-10, 02:45:05,VALID,998.267,VALID,0,VALID,94.6912,VALID,0,VALID,23.0201,VALID,33,VALID,0,
2011-12-10, 02:46:05,VALID,998.266,VALID,0,VALID,94.7217,VALID,0,VALID,23.0183,VALID,33,VALID,0,
2011-12-10, 02:47:05,VALID,998.255,VALID,0,VALID,94.6912,VALID,0,VALID,22.9988,VALID,33,VALID,0,
2011-12-10, 02:48:05,VALID,998.252,VALID,0,VALID,94.6912,VALID,0,VALID,23.0183,VALID,33,VALID,0,
2011-12-10, 02:49:05,VALID,998.249,VALID,0,VALID,94.6988,VALID,0,VALID,22.9988,VALID,33,VALID,0,
2011-12-10, 02:50:05,VALID,998.227,VALID,0,VALID,94.7217,VALID,0,VALID,22.9598,VALID,33,VALID,0,
2011-12-10, 02:51:05,VALID,998.226,VALID,0,VALID,94.6912,VALID,0,VALID,22.9598,VALID,33,VALID,0,
2011-12-10, 02:52:05,VALID,998.212,VALID,0,VALID,94.7141,VALID,0,VALID,22.9793,VALID,33,VALID,0,
2011-12-10, 02:53:05,VALID,998.202,VALID,0,VALID,94.6988,VALID,0,VALID,22.9988,VALID,33,VALID,0,
2011-12-10, 02:54:05,VALID,998.212,VALID,0,VALID,94.6912,VALID,0.104696,VALID,22.9776,VALID,33,VALID,0,
2011-12-10, 02:55:05,VALID,998.216,VALID,0,VALID,94.6836,VALID,0,VALID,23.0378,VALID,33,VALID,0,
2011-12-10, 02:56:05,VALID,998.192,VALID,0,VALID,94.6836,VALID,0,VALID,23.0361,VALID,33,VALID,0,
2011-12-10, 02:57:05,VALID,998.223,VALID,0,VALID,94.676,VALID,0,VALID,23.0361,VALID,33,VALID,0,
2011-12-10, 02:58:05,VALID,998.22,VALID,0,VALID,94.6912,VALID,0.104696,VALID,23.0556,VALID,33,VALID,0,
2011-12-10, 02:59:05,VALID,998.237,VALID,0,VALID,94.6836,VALID,0.104696,VALID,23.0361,VALID,33,VALID,0,
2011-12-10, 03:00:05,VALID,998.255,VALID,0,VALID,94.676,VALID,0,VALID,23.0361,VALID,33,VALID,0,
2011-12-10, 03:01:05,VALID,998.248,VALID,0,VALID,94.6912,VALID,0.104696,VALID,22.9971,VALID,33,VALID,0,
2011-12-10, 03:02:05,VALID,998.273,VALID,0,VALID,94.7065,VALID,0,VALID,22.9971,VALID,33,VALID,0,
2011-12-10, 03:03:05,VALID,998.279,VALID,0,VALID,94.7065,VALID,0.104696,VALID,22.9776,VALID,33,VALID,0,
2011-12-10, 03:04:05,VALID,998.284,VALID,0,VALID,94.6988,VALID,0,VALID,22.9988,VALID,33,VALID,0,
2011-12-10, 03:05:05,VALID,998.293,VALID,0,VALID,94.7141,VALID,0.104696,VALID,22.9971,VALID,33,VALID,0,
2011-12-10, 03:06:05,VALID,998.28,VALID,0,VALID,94.6912,VALID,0,VALID,22.9776,VALID,33,VALID,0,
2011-12-10, 03:07:05,VALID,998.286,VALID,0,VALID,94.676,VALID,0.104696,VALID,22.9776,VALID,33,VALID,0,
2011-12-10, 03:08:05,VALID,998.292,VALID,0,VALID,94.6836,VALID,0.104696,VALID,22.9971,VALID,33,VALID,0,
2011-12-10, 03:09:05,VALID,998.262,VALID,0,VALID,94.6988,VALID,0,VALID,22.9988,VALID,33,VALID,0,
2011-12-10, 03:10:05,VALID,998.291,VALID,0,VALID,94.676,VALID,0,VALID,22.9988,VALID,33,VALID,0,
2011-12-10, 03:11:05,VALID,998.275,VALID,0,VALID,94.6683,VALID,0,VALID,22.9793,VALID,33,VALID,0,
2011-12-10, 03:12:05,VALID,998.265,VALID,0,VALID,94.6988,VALID,0,VALID,23.0183,VALID,33,VALID,0,
2011-12-10, 03:13:05,VALID,998.288,VALID,0,VALID,94.6836,VALID,0,VALID,22.9793,VALID,33,VALID,0,
2011-12-10, 03:14:05,VALID,998.293,VALID,0,VALID,94.6988,VALID,0,VALID,23.0006,VALID,33,VALID,0,
2011-12-10, 03:15:05,VALID,998.272,VALID,0,VALID,94.6836,VALID,0,VALID,22.9793,VALID,33,VALID,0,
2011-12-10, 03:16:05,VALID,998.278,VALID,0,VALID,94.6683,VALID,0,VALID,23.0183,VALID,33,VALID,0,
2011-12-10, 03:17:05,VALID,998.285,VALID,0,VALID,94.676,VALID,0,VALID,23.0396,VALID,33,VALID,0,
2011-12-10, 03:18:05,VALID,998.281,VALID,0,VALID,94.676,VALID,0,VALID,23.0396,VALID,33,VALID,0,
2011-12-10, 03:19:05,VALID,998.267,VALID,0,VALID,94.676,VALID,0,VALID,23.0378,VALID,33,VALID,0,
2011-12-10, 03:20:05,VALID,998.263,VALID,0,VALID,94.6836,VALID,0,VALID,23.0183,VALID,33,VALID,0,
2011-12-10, 03:21:04,VALID,998.286,VALID,0,VALID,94.6683,VALID,0,VALID,23.0183,VALID,33,VALID,0,
2011-12-10, 03:22:04,VALID,998.303,VALID,0,VALID,94.676,VALID,0,VALID,23.0378,VALID,33,VALID,0,
2011-12-10, 03:23:04,VALID,998.281,VALID,0,VALID,94.676,VALID,0,VALID,23.0378,VALID,33,VALID,0,
2011-12-10, 03:24:04,VALID,998.306,VALID,0,VALID,94.6683,VALID,0,VALID,23.0769,VALID,33,VALID,0,
2011-12-10, 03:25:04,VALID,998.292,VALID,0,VALID,94.6683,VALID,0,VALID,23.0361,VALID,33,VALID,0,
2011-12-10, 03:26:04,VALID,998.312,VALID,0,VALID,94.6683,VALID,0.104696,VALID,23.0556,VALID,33,VALID,0,
2011-12-10, 03:27:04,VALID,998.357,VALID,0,VALID,94.6683,VALID,0,VALID,23.0556,VALID,33,VALID,0,
2011-12-10, 03:28:04,VALID,998.383,VALID,0,VALID,94.676,VALID,0,VALID,23.0556,VALID,33,VALID,0,
2011-12-10, 03:29:04,VALID,998.385,VALID,0,VALID,94.676,VALID,0,VALID,23.0556,VALID,33,VALID,0,
2011-12-10, 03:30:04,VALID,998.396,VALID,0,VALID,94.676,VALID,0,VALID,23.0378,VALID,33,VALID,0,
2011-12-10, 03:31:04,VALID,998.393,VALID,0,VALID,94.7065,VALID,0,VALID,23.0166,VALID,33,VALID,0,
2011-12-10, 03:32:04,VALID,998.402,VALID,0,VALID,94.6683,VALID,0,VALID,23.0166,VALID,33,VALID,0,
2011-12-10, 03:33:04,VALID,998.423,VALID,0,VALID,94.676,VALID,0,VALID,23.0166,VALID,33,VALID,0,
2011-12-10, 03:34:04,VALID,998.418,VALID,0,VALID,94.6912,VALID,0,VALID,23.0166,VALID,33,VALID,0,
2011-12-10, 03:35:04,VALID,998.429,VALID,0,VALID,94.6607,VALID,0,VALID,23.0378,VALID,33,VALID,0,
2011-12-10, 03:36:04,VALID,998.435,VALID,0,VALID,94.6683,VALID,0.104696,VALID,23.0166,VALID,33,VALID,0,
2011-12-10, 03:37:04,VALID,998.422,VALID,0,VALID,94.6683,VALID,0,VALID,23.0361,VALID,33,VALID,0,
2011-12-10, 03:38:04,VALID,998.452,VALID,0,VALID,94.6454,VALID,0,VALID,23.0751,VALID,33,VALID,0,
2011-12-10, 03:39:04,VALID,998.443,VALID,0,VALID,94.6378,VALID,0,VALID,23.0573,VALID,33,VALID,0,
2011-12-10, 03:40:04,VALID,998.428,VALID,0,VALID,94.6683,VALID,0,VALID,23.0981,VALID,33,VALID,0,
2011-12-10, 03:41:04,VALID,998.444,VALID,0,VALID,94.6454,VALID,0,VALID,23.0964,VALID,33,VALID,0,
2011-12-10, 03:42:04,VALID,998.423,VALID,0,VALID,94.676,VALID,0,VALID,23.0769,VALID,33,VALID,0,
2011-12-10, 03:43:04,VALID,998.441,VALID,0,VALID,94.6683,VALID,0,VALID,23.0769,VALID,33,VALID,0,
2011-12-10, 03:44:04,VALID,998.44,VALID,0,VALID,94.6531,VALID,0,VALID,23.0964,VALID,33,VALID,0,
2011-12-10, 03:45:04,VALID,998.409,VALID,0,VALID,94.6683,VALID,0,VALID,23.0964,VALID,33,VALID,0,
2011-12-10, 03:46:04,VALID,998.406,VALID,0,VALID,94.6607,VALID,0,VALID,23.0964,VALID,33,VALID,0,
2011-12-10, 03:47:04,VALID,998.438,VALID,0,VALID,94.6836,VALID,0,VALID,23.0964,VALID,33,VALID,0,
2011-12-10, 03:48:04,VALID,998.438,VALID,0,VALID,94.6683,VALID,0,VALID,23.0964,VALID,33,VALID,0,
2011-12-10, 03:49:04,VALID,998.426,VALID,0,VALID,94.6683,VALID,0,VALID,23.1159,VALID,33,VALID,0,
2011-12-10, 03:50:04,VALID,998.422,VALID,0,VALID,94.676,VALID,0,VALID,23.1176,VALID,33,VALID,0,
2011-12-10, 03:51:04,VALID,998.475,VALID,0,VALID,94.6836,VALID,0,VALID,23.0964,VALID,33,VALID,0,
2011-12-10, 03:52:04,VALID,998.436,VALID,0,VALID,94.6836,VALID,0,VALID,23.1159,VALID,33,VALID,0,
2011-12-10, 03:53:04,VALID,998.459,VALID,0,VALID,94.6836,VALID,0,VALID,23.1159,VALID,89,VALID,0,
2011-12-10, 03:54:04,VALID,998.402,VALID,0,VALID,94.6912,VALID,0,VALID,23.1141,VALID,98,VALID,0.999609,
2011-12-10, 03:55:04,VALID,998.373,VALID,0,VALID,94.6988,VALID,0,VALID,23.1549,VALID,94,VALID,0.925781,